Tracking 20093 objects as of 14-Dec-2019
HD Live streaming from Space Station
objects crossing your sky now

COSMOS 2251 DEB

Track COSMOS 2251 DEB now!
10-day predictions


NORAD ID: 34569
Int'l Code: 1993-036VF
Perigee: 716.7 km
Apogee: 961.8 km
Inclination: 74.0 °
Period: 101.6 minutes
Semi major axis: 7210 km
RCS: 0.0194 m2 (small)
Launch date: June 16, 1993
Source: Commonwealth of Independent States (former USSR) (CIS)
Launch site: PLESETSK MISSILE AND SPACE COMPLEX (PKMTR)

Note: This is SATELLITE DEBRIS
aabbcc
Your satellite tracking list
Your tracking list is empty




NASA's NSSDC Master Catalog

Two Line Element Set (TLE):
1 34569U 93036VF  19347.88285017  .00000096  00000-0  50905-4 0  9999
2 34569  73.9923 169.2600 0169949 133.9756 294.9069 14.18007122558821
Source of the keplerian elements: AFSPC